Time,TemperatureF,DewpointF,PressureIn,WindDirection,WindDirectionDegrees,WindSpeedMPH,WindSpeedGustMPH,Humidity,HourlyPrecipIn,Conditions,Clouds,dailyrainin,SolarRadiationWatts/m^2,SoftwareType,DateUTC
2013-05-29 00:02:00,71.0,64.0,-100.00,North,355,4.0,12.0,79,0.00,,,0.50,0.000000,,2013-05-29 10:02:00,
2013-05-29 00:12:00,71.0,64.0,-100.00,North,355,4.0,12.0,79,0.00,,,0.50,0.000000,,2013-05-29 10:12:00,
2013-05-29 00:22:00,71.0,64.0,-100.00,North,355,4.0,12.0,79,0.00,,,0.50,0.000000,,2013-05-29 10:22:00,
2013-05-29 00:32:00,71.0,64.0,-100.00,North,355,4.0,12.0,79,0.00,,,0.50,0.000000,,2013-05-29 10:32:00,
2013-05-29 00:53:00,70.0,66.0,-100.00,NNE,13,3.0,9.0,86,0.00,,,0.50,0.000000,,2013-05-29 10:53:00,
2013-05-29 01:02:00,70.0,66.0,-100.00,NNE,13,3.0,9.0,86,0.00,,,0.50,0.000000,,2013-05-29 11:02:00,
2013-05-29 01:11:00,70.0,66.0,-100.00,NNE,13,3.0,9.0,86,0.00,,,0.50,0.000000,,2013-05-29 11:11:00,
2013-05-29 01:21:00,70.0,66.0,-100.00,NNE,13,3.0,9.0,86,0.00,,,0.50,0.000000,,2013-05-29 11:21:00,
2013-05-29 01:32:00,70.0,66.0,-100.00,NNE,13,3.0,9.0,86,0.00,,,0.50,0.000000,,2013-05-29 11:32:00,
2013-05-29 02:01:00,67.0,64.0,-100.00,NNE,22,5.0,8.0,90,0.00,,,0.50,0.000000,,2013-05-29 12:01:00,
2013-05-29 02:11:00,67.0,64.0,-100.00,NNE,22,5.0,8.0,90,0.00,,,0.50,0.000000,,2013-05-29 12:11:00,
2013-05-29 02:21:00,67.0,64.0,-100.00,NNE,22,5.0,8.0,90,0.00,,,0.50,0.000000,,2013-05-29 12:21:00,
2013-05-29 02:31:00,67.0,64.0,-100.00,NNE,22,5.0,8.0,90,0.00,,,0.50,0.000000,,2013-05-29 12:31:00,
2013-05-29 02:52:00,66.0,64.0,-100.00,NNE,21,5.0,8.0,93,0.00,,,0.50,0.000000,,2013-05-29 12:52:00,
2013-05-29 03:01:00,66.0,64.0,-100.00,NNE,21,5.0,8.0,93,0.00,,,0.50,0.000000,,2013-05-29 13:01:00,
2013-05-29 03:11:00,66.0,64.0,-100.00,NNE,21,5.0,8.0,93,0.00,,,0.50,0.000000,,2013-05-29 13:11:00,
2013-05-29 03:21:00,66.0,64.0,-100.00,NNE,21,5.0,8.0,93,0.00,,,0.50,0.000000,,2013-05-29 13:21:00,
2013-05-29 03:31:00,66.0,64.0,-100.00,NNE,21,5.0,8.0,93,0.00,,,0.50,0.000000,,2013-05-29 13:31:00,
2013-05-29 03:53:00,67.0,65.0,-100.00,NNE,23,5.0,9.0,93,0.00,,,0.50,0.000000,,2013-05-29 13:53:00,
2013-05-29 04:02:00,67.0,65.0,-100.00,NNE,23,5.0,9.0,93,0.00,,,0.50,0.000000,,2013-05-29 14:02:00,
2013-05-29 04:11:00,67.0,65.0,-100.00,NNE,23,5.0,9.0,93,0.00,,,0.50,0.000000,,2013-05-29 14:11:00,
2013-05-29 04:21:00,67.0,65.0,-100.00,NNE,23,5.0,9.0,93,0.00,,,0.50,0.000000,,2013-05-29 14:21:00,
2013-05-29 04:32:00,67.0,65.0,-100.00,NNE,23,5.0,9.0,93,0.00,,,0.50,0.000000,,2013-05-29 14:32:00,
2013-05-29 04:52:00,66.0,64.0,-100.00,NNE,19,5.0,10.0,92,0.00,,,0.43,0.000000,,2013-05-29 14:52:00,
2013-05-29 05:01:00,66.0,64.0,-100.00,NNE,19,5.0,10.0,92,0.00,,,0.43,0.000000,,2013-05-29 15:01:00,
2013-05-29 05:11:00,66.0,64.0,-100.00,NNE,19,5.0,10.0,92,0.00,,,0.43,0.000000,,2013-05-29 15:11:00,
2013-05-29 05:21:00,66.0,64.0,-100.00,NNE,19,5.0,10.0,92,0.00,,,0.43,0.000000,,2013-05-29 15:21:00,
2013-05-29 05:32:00,66.0,64.0,-100.00,NNE,19,5.0,10.0,92,0.00,,,0.43,0.000000,,2013-05-29 15:32:00,
2013-05-29 05:53:00,66.0,64.0,-100.00,NNE,26,6.0,10.0,92,0.00,,,0.43,0.000000,,2013-05-29 15:53:00,
2013-05-29 06:03:00,66.0,64.0,-100.00,NNE,26,6.0,10.0,92,0.00,,,0.43,0.000000,,2013-05-29 16:03:00,
2013-05-29 06:12:00,66.0,64.0,-100.00,NNE,26,6.0,10.0,92,0.00,,,0.43,0.000000,,2013-05-29 16:12:00,
2013-05-29 06:22:00,66.0,64.0,-100.00,NNE,26,6.0,10.0,92,0.00,,,0.43,0.000000,,2013-05-29 16:22:00,
2013-05-29 06:32:00,66.0,64.0,-100.00,NNE,26,6.0,10.0,92,0.00,,,0.43,0.000000,,2013-05-29 16:32:00,
2013-05-29 06:52:00,65.0,63.0,-100.00,NNE,22,5.0,10.0,93,0.00,,,0.43,0.000000,,2013-05-29 16:52:00,
2013-05-29 07:02:00,65.0,63.0,-100.00,NNE,22,5.0,10.0,93,0.00,,,0.43,0.000000,,2013-05-29 17:02:00,
2013-05-29 07:12:00,65.0,63.0,-100.00,NNE,22,5.0,10.0,93,0.00,,,0.43,0.000000,,2013-05-29 17:12:00,
2013-05-29 07:22:00,65.0,63.0,-100.00,NNE,22,5.0,10.0,93,0.00,,,0.43,0.000000,,2013-05-29 17:22:00,
2013-05-29 07:32:00,65.0,63.0,-100.00,NNE,22,5.0,10.0,93,0.00,,,0.43,0.000000,,2013-05-29 17:32:00,
2013-05-29 08:01:00,70.0,67.0,-100.00,NNE,18,4.0,9.0,89,0.00,,,0.43,14.000000,,2013-05-29 18:01:00,
2013-05-29 08:13:00,70.0,67.0,-100.00,NNE,18,4.0,9.0,89,0.00,,,0.43,14.000000,,2013-05-29 18:13:00,
2013-05-29 08:22:00,70.0,67.0,-100.00,NNE,18,4.0,9.0,89,0.00,,,0.43,14.000000,,2013-05-29 18:22:00,
2013-05-29 08:32:00,70.0,67.0,-100.00,NNE,18,4.0,9.0,89,0.00,,,0.43,14.000000,,2013-05-29 18:32:00,
2013-05-29 08:52:00,81.0,68.0,-100.00,NW,320,2.0,5.0,64,0.00,,,0.42,132.000000,,2013-05-29 18:52:00,
2013-05-29 09:01:00,81.0,68.0,-100.00,NW,320,2.0,5.0,64,0.00,,,0.42,132.000000,,2013-05-29 19:01:00,
2013-05-29 09:11:00,81.0,68.0,-100.00,NW,320,2.0,5.0,64,0.00,,,0.42,132.000000,,2013-05-29 19:11:00,
2013-05-29 09:21:00,81.0,68.0,-100.00,NW,320,2.0,5.0,64,0.00,,,0.42,132.000000,,2013-05-29 19:21:00,
2013-05-29 09:32:00,81.0,68.0,-100.00,NW,320,2.0,5.0,64,0.00,,,0.42,132.000000,,2013-05-29 19:32:00,
2013-05-29 10:02:00,83.0,67.0,-100.00,SSW,201,4.0,8.0,58,0.00,,,0.42,496.000000,,2013-05-29 20:02:00,
2013-05-29 10:11:00,83.0,67.0,-100.00,SSW,201,4.0,8.0,58,0.00,,,0.42,496.000000,,2013-05-29 20:11:00,
2013-05-29 10:22:00,83.0,67.0,-100.00,SSW,201,4.0,8.0,58,0.00,,,0.42,496.000000,,2013-05-29 20:22:00,
2013-05-29 10:32:00,83.0,67.0,-100.00,SSW,201,4.0,8.0,58,0.00,,,0.42,496.000000,,2013-05-29 20:32:00,
2013-05-29 11:02:00,83.0,71.0,-100.00,SW,217,6.0,15.0,67,0.00,,,0.42,837.000000,,2013-05-29 21:02:00,
2013-05-29 11:12:00,83.0,71.0,-100.00,SW,217,6.0,15.0,67,0.00,,,0.42,837.000000,,2013-05-29 21:12:00,
2013-05-29 11:22:00,83.0,71.0,-100.00,SW,217,6.0,15.0,67,0.00,,,0.42,837.000000,,2013-05-29 21:22:00,
2013-05-29 11:33:00,83.0,71.0,-100.00,SW,217,6.0,15.0,67,0.00,,,0.42,837.000000,,2013-05-29 21:33:00,
2013-05-29 11:53:00,78.0,67.0,-100.00,SW,229,7.0,13.0,70,0.00,,,0.42,1128.000000,,2013-05-29 21:53:00,
2013-05-29 12:03:00,78.0,67.0,-100.00,SW,229,7.0,13.0,70,0.00,,,0.42,1128.000000,,2013-05-29 22:03:00,
2013-05-29 12:12:00,78.0,67.0,-100.00,SW,229,7.0,13.0,70,0.00,,,0.42,1128.000000,,2013-05-29 22:12:00,
2013-05-29 12:23:00,78.0,67.0,-100.00,SW,229,7.0,13.0,70,0.00,,,0.42,1128.000000,,2013-05-29 22:23:00,
2013-05-29 12:33:00,78.0,67.0,-100.00,SW,229,7.0,13.0,70,0.00,,,0.42,1128.000000,,2013-05-29 22:33:00,
2013-05-29 12:53:00,76.0,68.0,-100.00,SW,214,6.0,13.0,77,0.00,,,0.42,563.000000,,2013-05-29 22:53:00,
2013-05-29 13:02:00,76.0,68.0,-100.00,SW,214,6.0,13.0,77,0.00,,,0.42,563.000000,,2013-05-29 23:02:00,
2013-05-29 13:12:00,76.0,68.0,-100.00,SW,214,6.0,13.0,77,0.00,,,0.42,563.000000,,2013-05-29 23:12:00,
2013-05-29 13:21:00,76.0,68.0,-100.00,SW,214,6.0,13.0,77,0.00,,,0.42,563.000000,,2013-05-29 23:21:00,
2013-05-29 13:33:00,76.0,68.0,-100.00,SW,214,6.0,13.0,77,0.00,,,0.42,563.000000,,2013-05-29 23:33:00,
2013-05-29 14:01:00,77.0,70.0,-100.00,WSW,239,4.0,12.0,80,0.00,,,0.40,248.000000,,2013-05-30 00:01:00,
2013-05-29 14:11:00,77.0,70.0,-100.00,WSW,239,4.0,12.0,80,0.00,,,0.40,248.000000,,2013-05-30 00:11:00,
2013-05-29 14:21:00,77.0,70.0,-100.00,WSW,239,4.0,12.0,80,0.00,,,0.40,248.000000,,2013-05-30 00:21:00,
2013-05-29 14:31:00,77.0,70.0,-100.00,WSW,239,4.0,12.0,80,0.00,,,0.40,248.000000,,2013-05-30 00:31:00,
2013-05-29 14:52:00,74.0,70.0,-100.00,NNE,21,2.0,8.0,87,0.01,,,0.41,198.000000,,2013-05-30 00:52:00,
2013-05-29 15:01:00,74.0,70.0,-100.00,NNE,21,2.0,8.0,87,0.01,,,0.41,198.000000,,2013-05-30 01:01:00,
2013-05-29 15:11:00,74.0,70.0,-100.00,NNE,21,2.0,8.0,87,0.01,,,0.41,198.000000,,2013-05-30 01:11:00,
2013-05-29 15:21:00,74.0,70.0,-100.00,NNE,21,2.0,8.0,87,0.01,,,0.41,198.000000,,2013-05-30 01:21:00,
2013-05-29 15:31:00,74.0,70.0,-100.00,NNE,21,2.0,8.0,87,0.01,,,0.41,198.000000,,2013-05-30 01:31:00,
2013-05-29 15:52:00,75.0,69.0,-100.00,NNE,19,3.0,7.0,83,0.01,,,0.42,233.000000,,2013-05-30 01:52:00,
2013-05-29 16:01:00,75.0,69.0,-100.00,NNE,19,3.0,7.0,83,0.01,,,0.42,233.000000,,2013-05-30 02:01:00,
2013-05-29 16:11:00,75.0,69.0,-100.00,NNE,19,3.0,7.0,83,0.01,,,0.42,233.000000,,2013-05-30 02:11:00,
2013-05-29 16:21:00,75.0,69.0,-100.00,NNE,19,3.0,7.0,83,0.01,,,0.42,233.000000,,2013-05-30 02:21:00,
2013-05-29 16:32:00,75.0,69.0,-100.00,NNE,19,3.0,7.0,83,0.01,,,0.42,233.000000,,2013-05-30 02:32:00,
2013-05-29 17:01:00,73.0,70.0,-100.00,NE,39,2.0,6.0,91,0.03,,,0.07,224.000000,,2013-05-30 03:01:00,
2013-05-29 17:11:00,73.0,70.0,-100.00,NE,39,2.0,6.0,91,0.03,,,0.07,224.000000,,2013-05-30 03:11:00,
2013-05-29 17:21:00,73.0,70.0,-100.00,NE,39,2.0,6.0,91,0.03,,,0.07,224.000000,,2013-05-30 03:21:00,
2013-05-29 17:32:00,73.0,70.0,-100.00,NE,39,2.0,6.0,91,0.03,,,0.07,224.000000,,2013-05-30 03:32:00,
2013-05-29 17:53:00,73.0,69.0,-100.00,NNE,15,3.0,10.0,87,0.01,,,0.07,78.000000,,2013-05-30 03:53:00,
2013-05-29 18:02:00,73.0,69.0,-100.00,NNE,15,3.0,10.0,87,0.01,,,0.07,78.000000,,2013-05-30 04:02:00,
2013-05-29 18:12:00,73.0,69.0,-100.00,NNE,15,3.0,10.0,87,0.01,,,0.07,78.000000,,2013-05-30 04:12:00,
2013-05-29 18:23:00,73.0,69.0,-100.00,NNE,15,3.0,10.0,87,0.01,,,0.07,78.000000,,2013-05-30 04:23:00,
2013-05-29 18:32:00,73.0,69.0,-100.00,NNE,15,3.0,10.0,87,0.01,,,0.07,78.000000,,2013-05-30 04:32:00,
2013-05-29 19:02:00,71.0,67.0,-100.00,NNE,23,4.0,8.0,87,0.00,,,0.07,110.000000,,2013-05-30 05:02:00,
2013-05-29 19:12:00,71.0,67.0,-100.00,NNE,23,4.0,8.0,87,0.00,,,0.07,110.000000,,2013-05-30 05:12:00,
2013-05-29 19:22:00,71.0,67.0,-100.00,NNE,23,4.0,8.0,87,0.00,,,0.07,110.000000,,2013-05-30 05:22:00,
2013-05-29 19:32:00,71.0,67.0,-100.00,NNE,23,4.0,8.0,87,0.00,,,0.07,110.000000,,2013-05-30 05:32:00,
2013-05-29 19:52:00,70.0,67.0,-100.00,North,9,3.0,8.0,90,0.00,,,0.07,108.000000,,2013-05-30 05:52:00,
2013-05-29 20:01:00,70.0,67.0,-100.00,North,9,3.0,8.0,90,0.00,,,0.07,108.000000,,2013-05-30 06:01:00,
2013-05-29 20:12:00,70.0,67.0,-100.00,North,9,3.0,8.0,90,0.00,,,0.07,108.000000,,2013-05-30 06:12:00,
2013-05-29 20:21:00,70.0,67.0,-100.00,North,9,3.0,8.0,90,0.00,,,0.07,108.000000,,2013-05-30 06:21:00,
2013-05-29 20:32:00,70.0,67.0,-100.00,North,9,3.0,8.0,90,0.00,,,0.07,108.000000,,2013-05-30 06:32:00,
2013-05-29 20:52:00,70.0,67.0,-100.00,NNE,16,3.0,8.0,89,0.00,,,0.07,13.000000,,2013-05-30 06:52:00,
2013-05-29 21:01:00,70.0,67.0,-100.00,NNE,16,3.0,8.0,89,0.00,,,0.07,13.000000,,2013-05-30 07:01:00,
2013-05-29 21:12:00,70.0,67.0,-100.00,NNE,16,3.0,8.0,89,0.00,,,0.07,13.000000,,2013-05-30 07:12:00,
2013-05-29 21:21:00,70.0,67.0,-100.00,NNE,16,3.0,8.0,89,0.00,,,0.07,13.000000,,2013-05-30 07:21:00,
2013-05-29 21:31:00,70.0,67.0,-100.00,NNE,16,3.0,8.0,89,0.00,,,0.07,13.000000,,2013-05-30 07:31:00,
2013-05-29 22:02:00,68.0,65.0,-100.00,NNE,12,3.0,8.0,91,0.00,,,0.06,0.000000,,2013-05-30 08:02:00,
2013-05-29 22:11:00,68.0,65.0,-100.00,NNE,12,3.0,8.0,91,0.00,,,0.06,0.000000,,2013-05-30 08:11:00,
2013-05-29 22:21:00,68.0,65.0,-100.00,NNE,12,3.0,8.0,91,0.00,,,0.06,0.000000,,2013-05-30 08:21:00,
2013-05-29 22:31:00,68.0,65.0,-100.00,NNE,12,3.0,8.0,91,0.00,,,0.06,0.000000,,2013-05-30 08:31:00,
2013-05-29 22:53:00,71.0,66.0,-100.00,NNW,346,4.0,9.0,85,0.00,,,0.06,0.000000,,2013-05-30 08:53:00,
2013-05-29 23:01:00,71.0,66.0,-100.00,NNW,346,4.0,9.0,85,0.00,,,0.06,0.000000,,2013-05-30 09:01:00,
2013-05-29 23:11:00,71.0,66.0,-100.00,NNW,346,4.0,9.0,85,0.00,,,0.06,0.000000,,2013-05-30 09:11:00,
2013-05-29 23:21:00,71.0,66.0,-100.00,NNW,346,4.0,9.0,85,0.00,,,0.06,0.000000,,2013-05-30 09:21:00,
2013-05-29 23:32:00,71.0,66.0,-100.00,NNW,346,4.0,9.0,85,0.00,,,0.06,0.000000,,2013-05-30 09:32:00,